TimeAST,TemperatureF,Dew PointF,Humidity,Sea Level PressureIn,VisibilityMPH,Wind Direction,Wind SpeedMPH,Gust SpeedMPH,PrecipitationIn,Events,Conditions,WindDirDegrees,DateUTC
12:56 AM,79.0,71.1,77,29.95,10.0,NE,8.1,-,0.01,,Overcast,50,2012-12-04 04:56:00
1:56 AM,79.0,70.0,74,29.94,10.0,NE,9.2,-,N/A,,Mostly Cloudy,50,2012-12-04 05:56:00
2:56 AM,79.0,69.1,72,29.92,10.0,ENE,11.5,-,N/A,,Mostly Cloudy,60,2012-12-04 06:56:00
3:56 AM,79.0,69.1,72,29.91,10.0,NE,10.4,-,N/A,,Scattered Clouds,40,2012-12-04 07:56:00
4:56 AM,79.0,69.1,72,29.92,10.0,ENE,9.2,-,N/A,,Mostly Cloudy,60,2012-12-04 08:56:00
5:56 AM,79.0,66.9,66,29.93,10.0,NE,13.8,-,N/A,,Mostly Cloudy,50,2012-12-04 09:56:00
6:56 AM,79.0,68.0,69,29.95,10.0,NE,12.7,-,N/A,,Scattered Clouds,50,2012-12-04 10:56:00
7:56 AM,80.1,69.1,69,29.98,10.0,NE,11.5,18.4,N/A,,Scattered Clouds,50,2012-12-04 11:56:00
8:56 AM,80.1,69.1,69,30.00,10.0,NE,12.7,-,N/A,,Scattered Clouds,40,2012-12-04 12:56:00
9:56 AM,81.0,71.1,72,30.01,10.0,NE,10.4,-,0.01,,Scattered Clouds,40,2012-12-04 13:56:00
10:56 AM,82.9,68.0,60,30.01,10.0,ENE,11.5,-,N/A,,Scattered Clouds,60,2012-12-04 14:56:00
11:56 AM,84.9,66.9,55,30.00,10.0,NE,13.8,-,N/A,,Scattered Clouds,50,2012-12-04 15:56:00
12:56 PM,84.0,66.9,56,29.97,10.0,NE,15.0,21.9,N/A,,Scattered Clouds,50,2012-12-04 16:56:00
1:56 PM,84.9,66.0,53,29.96,10.0,NE,12.7,21.9,N/A,,Scattered Clouds,50,2012-12-04 17:56:00
2:56 PM,84.9,66.9,55,29.94,10.0,ENE,12.7,19.6,N/A,,Scattered Clouds,60,2012-12-04 18:56:00
3:56 PM,82.9,66.9,58,29.94,10.0,NE,12.7,20.7,N/A,,Scattered Clouds,40,2012-12-04 19:56:00
4:56 PM,82.0,68.0,62,29.94,10.0,NE,11.5,-,N/A,,Scattered Clouds,40,2012-12-04 20:56:00
5:56 PM,81.0,66.9,62,29.95,10.0,ENE,10.4,-,N/A,,Scattered Clouds,60,2012-12-04 21:56:00
6:56 PM,81.0,68.0,65,29.96,10.0,NE,9.2,-,N/A,,Scattered Clouds,40,2012-12-04 22:56:00
7:56 PM,81.0,68.0,65,29.97,10.0,NE,9.2,-,N/A,,Scattered Clouds,50,2012-12-04 23:56:00
8:56 PM,81.0,68.0,65,29.99,10.0,NE,8.1,-,N/A,,Partly Cloudy,50,2012-12-05 00:56:00
9:56 PM,80.1,68.0,67,29.99,10.0,NE,9.2,-,N/A,,Scattered Clouds,50,2012-12-05 01:56:00
10:56 PM,80.1,68.0,67,29.99,10.0,ENE,13.8,-,N/A,,Scattered Clouds,60,2012-12-05 02:56:00
11:56 PM,79.0,66.9,66,29.98,10.0,ENE,10.4,-,N/A,,Scattered Clouds,60,2012-12-05 03:56:00